{"data":{"norad_id":58032,"epoch":"2026-05-25T02:46:58.784160Z","epoch_age_seconds":71918,"freshness":"FRESH","line1":"1 58032U 23156E   26145.11595815  .00000497  00000+0  28920-4 0  9992","line2":"2 58032  53.1610  83.4568 0001298  86.9527 273.1622 15.30198761148015","mean_motion":15.30198761,"eccentricity":0.0001298,"inclination_deg":53.161,"raan_deg":83.4568,"arg_perigee_deg":86.9527,"mean_anomaly_deg":273.1622,"bstar":2.892e-5,"rev_number":14801,"period_min":94.105421903423,"perigee_km":474.32920327369,"apogee_km":476.10833443129,"semimajor_km":6853.3557688525,"source":"CELESTRAK","updated_at":"2026-05-25T13:38:18.494917Z"}}